Location: Guadanolo
(41.9167°N, 12.9333°E)
Time: 11:09:24
(UTC+00:00)

Cosmos 2237 Rocket - Pass Details

Date: 16 September 2019
Orbit: 833 x 851 km, 71.0° (Epoch: 17 October)

Event Time Altitude Azimuth Distance (km) Brightness Sun altitude
Rises 20:13:22 0° 329° (NNW) 3,423 6.3 -31.3°
Reaches altitude 10° 20:15:55 10° 324° (NW) 2,485 5.4 -31.7°
Enters shadow 20:21:03 44° 261° (W) 1,160 3.0 -32.4°
